Vorticity
6 6 7 5 9 4 6 4 4 6 7 8 8 8 10 12 12 13 16 18 17 19 13 11 16 9 7 8 8 9 11 14 11 8 8 8 8 7 6 6 6 6 6 5 4
5 5 5 5 5 4 6 3 4 4 4 8 6 9 10 9 10 14 12 16 18 16 15 14 16 18 14 7 8 8 8 9 12 12 8 6 7 7 7 6 6 5 5 5 4
3 5 4 5 5 4 4 4 4 5 6 7 7 8 6 4 9 7 9 7 14 17 13 13 15 19 22 18 13 10 10 9 10 9 8 8 7 7 6 5 5 4 4 4 4
5 4 7 6 4 4 4 5 2 5 5 7 5 6 7 8 12 12 11 7 11 14 24 7 9 6 9 15 17 10 10 10 9 9 8 5 4 4 4 4 4 4 4 3 4
5 5 5 6 7 7 4 4 4 4 6 5 6 7 8 8 8 9 12 17 7 13 17 23 -1 6 7 5 4 5 7 10 9 7 5 4 4 3 3 5 7 9 9 9 9
4 6 5 6 4 6 6 5 4 4 7 1 5 7 8 6 5 5 16 11 12 7 7 10 12 12 12 12 10 11 12 11 8 6 4 5 7 8 9 9 8 8 8 8 7
5 5 3 5 5 6 5 5 5 6 5 2 6 4 9 3 3 5 4 5 6 2 1 6 12 18 18 12 11 10 9 9 9 10 11 12 11 10 9 8 8 8 8 7 7
5 4 3 3 4 6 6 5 4 5 4 3 4 5 8 6 4 7 12 13 11 12 15 11 2 10 9 11 16 14 14 13 11 11 11 11 11 10 10 9 10 9 8 7 7
5 5 4 3 3 6 8 9 9 3 4 4 4 8 2 -0 3 5 0 -2 6 6 18 8 4 11 12 13 11 14 13 10 12 11 10 10 10 9 9 9 9 8 9 7 9
4 4 4 3 4 6 7 8 10 12 5 3 7 2 5 4 2 8 7 5 -1 5 9 9 8 12 15 11 8 13 15 13 10 10 11 10 10 9 9 9 9 9 8 8 7
5 4 4 5 4 5 6 8 6 6 7 8 9 8 7 1 3 -1 7 4 4 1 1 5 10 4 2 20 14 8 11 12 13 11 10 10 10 10 10 8 7 7 7 4 6
6 6 5 4 4 5 6 7 5 6 7 6 2 10 8 2 5 0 8 6 4 4 2 3 4 7 6 9 17 13 8 8 9 9 8 9 9 7 7 6 5 7 8 9 6
7 6 6 5 4 4 4 8 7 7 7 10 6 17 8 11 7 -2 8 7 3 5 8 5 4 5 5 8 7 12 13 9 6 7 8 8 8 8 8 7 8 8 6 6 7
7 7 5 6 6 4 4 5 7 8 10 9 4 6 17 18 8 6 10 6 3 5 7 7 6 6 4 4 4 10 10 11 10 8 7 8 7 12 12 8 8 7 8 9 7
4 7 7 5 5 5 4 5 6 10 6 11 8 6 11 14 7 6 5 2 6 8 10 9 10 8 6 7 12 12 9 11 11 12 10 10 10 8 9 10 9 10 9 6 3
6 5 7 8 6 4 3 4 5 7 11 5 6 3 5 8 8 11 8 7 11 10 8 8 7 5 4 2 -0 3 12 12 13 14 12 10 9 11 8 11 8 7 4 3 3
6 5 6 7 7 6 4 3 6 4 6 11 12 10 8 6 6 9 12 10 6 6 6 1 2 4 2 2 5 4 6 10 11 11 8 9 10 7 10 8 5 1 3 2 6
8 6 6 6 6 6 5 3 3 3 4 4 6 4 2 7 6 5 5 4 5 4 4 2 9 9 11 10 7 12 11 9 7 8 9 8 7 10 8 4 3 2 3 8 6
6 7 5 7 5 6 5 2 3 5 4 6 5 8 6 6 8 7 7 6 6 4 1 3 -4 20 19 17 13 11 10 11 9 9 7 6 7 6 4 3 4 5 10 3 2
31 4 4 6 5 5 4 4 5 5 6 6 6 6 8 6 5 8 8 8 3 -1 1 -2 2 15 15 16 16 10 13 11 9 6 5 4 4 10 1 3 3 10 1 2 2
13 21 7 3 7 6 5 5 5 5 5 5 5 7 7 7 6 6 6 4 2 1 1 0 5 10 16 17 14 14 12 11 7 6 4 5 5 1 6 1 7 3 1 2 2
25 11 14 6 5 5 3 5 7 6 6 5 6 7 7 8 7 6 5 5 5 3 1 4 1 12 12 12 11 11 12 10 8 4 4 2 5 1 3 3 5 3 2 5 1
14 11 18 6 5 5 5 5 5 5 5 6 6 8 8 7 8 7 6 5 4 3 5 4 6 7 12 7 14 12 11 11 8 5 4 2 4 9 2 3 6 4 4 0 -0
11 20 14 20 2 6 4 6 5 5 4 6 6 6 8 8 7 7 6 6 6 6 5 3 2 12 10 8 12 13 14 12 8 7 5 8 4 7 4 4 5 4 1 1 3
2 21 25 16 22 9 8 5 4 4 4 6 5 10 10 9 7 6 7 9 8 8 6 2 3 13 12 9 10 8 12 10 9 6 2 2 9 3 2 4 4 2 1 6 2
10 10 7 28 16 11 5 5 4 6 6 5 6 8 7 8 9 7 7 10 6 7 6 3 7 7 11 14 11 11 14 11 7 0 10 7 6 3 7 4 4 3 7 1 5
-6 18 6 12 24 15 9 10 11 9 6 6 5 5 7 8 9 8 8 7 7 8 5 6 7 9 8 7 9 13 4 3 8 8 6 3 7 5 7 3 7 4 2 4 5
Height
5782 5782 5781 5781 5780 5780 5779 5779 5778 5778 5777 5776 5774 5773 5771 5770 5768 5767 5766 5764 5763 5763 5763 5763 5764 5766 5767 5769 5770 5771 5773 5775 5777 5779 5782 5783 5785 5786 5787 5788 5789 5790 5792 5793 5793
5778 5777 5777 5777 5777 5777 5777 5776 5775 5775 5774 5772 5771 5769 5767 5765 5764 5762 5760 5758 5756 5755 5756 5756 5757 5758 5760 5761 5763 5764 5766 5768 5770 5772 5774 5776 5778 5780 5781 5782 5783 5785 5786 5786 5786
5774 5774 5774 5774 5773 5773 5772 5772 5771 5771 5770 5768 5767 5765 5763 5761 5759 5757 5755 5753 5752 5750 5750 5750 5751 5751 5752 5754 5756 5758 5760 5761 5763 5766 5767 5768 5770 5772 5773 5775 5778 5779 5779 5780 5779
5769 5769 5769 5770 5769 5769 5768 5768 5767 5767 5766 5764 5762 5761 5759 5757 5756 5752 5750 5749 5748 5746 5745 5746 5747 5747 5748 5749 5750 5752 5753 5755 5757 5759 5760 5762 5763 5765 5765 5769 5770 5771 5771 5772 5772
5764 5765 5765 5764 5764 5764 5764 5763 5763 5762 5760 5759 5758 5757 5756 5754 5751 5748 5746 5745 5744 5743 5742 5742 5742 5742 5743 5744 5745 5746 5747 5748 5750 5753 5754 5755 5756 5757 5757 5761 5761 5763 5763 5763 5764
5758 5759 5759 5759 5759 5759 5758 5758 5757 5756 5755 5755 5754 5753 5752 5751 5747 5745 5743 5742 5741 5740 5739 5739 5738 5737 5738 5738 5739 5740 5741 5742 5744 5746 5748 5749 5749 5749 5750 5752 5753 5755 5757 5757 5756
5750 5752 5754 5754 5753 5752 5752 5752 5751 5751 5750 5750 5749 5749 5748 5748 5745 5742 5740 5739 5738 5736 5735 5734 5733 5733 5732 5732 5732 5733 5734 5735 5736 5738 5740 5741 5742 5742 5744 5745 5746 5748 5749 5750 5750
5741 5743 5746 5747 5747 5746 5746 5746 5746 5745 5745 5744 5744 5744 5744 5743 5741 5739 5737 5736 5734 5733 5731 5731 5730 5728 5727 5727 5727 5727 5727 5728 5729 5731 5733 5734 5734 5736 5737 5739 5741 5740 5741 5742 5742
5734 5734 5736 5739 5739 5739 5740 5740 5739 5738 5738 5738 5739 5739 5739 5739 5738 5736 5734 5733 5731 5729 5728 5727 5726 5724 5723 5722 5721 5720 5721 5721 5723 5724 5726 5727 5727 5727 5729 5732 5733 5732 5733 5734 5733
5726 5727 5727 5729 5731 5732 5732 5732 5732 5732 5732 5732 5733 5735 5734 5733 5733 5732 5730 5729 5728 5726 5725 5723 5722 5720 5718 5716 5716 5715 5715 5715 5716 5719 5720 5720 5721 5718 5722 5725 5724 5724 5724 5724 5724
5716 5718 5719 5720 5721 5723 5725 5725 5727 5726 5725 5725 5727 5727 5727 5727 5727 5727 5726 5725 5724 5723 5721 5720 5718 5716 5714 5711 5710 5710 5710 5710 5710 5712 5713 5715 5715 5713 5714 5716 5716 5715 5715 5714 5713
5705 5708 5709 5712 5712 5714 5716 5717 5717 5718 5719 5718 5719 5720 5720 5720 5721 5721 5721 5721 5720 5718 5717 5716 5713 5712 5710 5708 5706 5705 5704 5705 5705 5705 5707 5708 5708 5708 5707 5707 5707 5707 5706 5705 5704
5694 5697 5700 5702 5704 5706 5708 5708 5708 5709 5710 5712 5712 5712 5713 5714 5714 5715 5716 5715 5714 5713 5712 5710 5709 5707 5706 5704 5702 5700 5699 5698 5699 5698 5699 5700 5702 5702 5701 5700 5699 5698 5697 5696 5694
5683 5685 5689 5692 5696 5696 5699 5700 5700 5701 5702 5706 5706 5706 5707 5706 5708 5709 5709 5710 5709 5708 5707 5706 5704 5702 5701 5699 5698 5695 5694 5692 5692 5692 5693 5693 5695 5695 5694 5692 5691 5689 5687 5686 5684
5669 5674 5677 5681 5685 5687 5689 5692 5693 5693 5694 5698 5699 5699 5699 5701 5702 5702 5703 5703 5702 5702 5702 5701 5698 5697 5695 5693 5691 5690 5688 5686 5685 5685 5685 5686 5685 5686 5685 5683 5681 5679 5677 5675 5672
5655 5661 5666 5669 5673 5678 5679 5682 5685 5687 5687 5690 5691 5692 5693 5693 5694 5696 5696 5697 5696 5696 5695 5694 5693 5691 5689 5687 5685 5683 5681 5679 5678 5677 5678 5678 5678 5677 5675 5674 5672 5670 5668 5665 5662
5640 5646 5653 5658 5662 5665 5669 5671 5675 5675 5682 5683 5683 5684 5686 5687 5687 5688 5689 5691 5691 5690 5689 5689 5687 5685 5683 5680 5678 5676 5674 5671 5671 5671 5672 5671 5671 5669 5666 5665 5661 5659 5656 5653 5650
5624 5632 5638 5645 5649 5653 5657 5661 5661 5669 5672 5673 5675 5676 5678 5679 5681 5681 5682 5683 5684 5684 5683 5682 5681 5678 5675 5672 5670 5669 5667 5664 5661 5662 5663 5664 5663 5661 5659 5656 5652 5650 5646 5643 5638
5609 5615 5624 5631 5635 5639 5644 5647 5654 5661 5663 5665 5666 5668 5670 5671 5672 5674 5675 5676 5676 5676 5677 5674 5673 5669 5665 5663 5662 5661 5659 5657 5654 5654 5654 5656 5656 5653 5650 5646 5642 5639 5637 5632 5626
5592 5599 5608 5615 5621 5625 5629 5636 5643 5651 5654 5656 5657 5659 5662 5663 5664 5665 5667 5668 5669 5669 5668 5667 5664 5661 5657 5655 5653 5652 5651 5650 5647 5644 5644 5645 5645 5644 5640 5635 5631 5628 5623 5616 5611
5576 5582 5594 5601 5605 5610 5616 5626 5633 5639 5644 5646 5648 5650 5652 5655 5656 5656 5659 5660 5660 5660 5660 5658 5657 5655 5650 5649 5646 5645 5643 5641 5640 5639 5635 5633 5637 5634 5628 5624 5620 5616 5609 5604 5599
5560 5566 5579 5583 5589 5597 5607 5617 5624 5628 5632 5636 5638 5641 5644 5645 5647 5647 5650 5650 5651 5651 5651 5650 5648 5645 5644 5641 5639 5638 5636 5634 5632 5632 5629 5624 5628 5622 5617 5611 5608 5603 5598 5591 5585
5545 5551 5558 5566 5573 5586 5597 5605 5611 5617 5621 5624 5628 5632 5635 5636 5638 5639 5640 5642 5642 5642 5642 5641 5640 5637 5635 5635 5632 5630 5628 5626 5624 5623 5622 5616 5618 5611 5605 5602 5598 5593 5587 5580 5573
5532 5534 5541 5553 5563 5573 5583 5591 5598 5605 5610 5613 5618 5622 5625 5627 5628 5630 5631 5632 5633 5633 5633 5632 5632 5629 5627 5625 5624 5622 5620 5618 5615 5616 5611 5614 5606 5603 5595 5592 5587 5582 5575 5568 5560
5515 5520 5532 5541 5554 5562 5569 5579 5588 5594 5599 5603 5608 5613 5615 5616 5618 5621 5622 5624 5625 5625 5625 5623 5622 5621 5618 5617 5615 5613 5612 5608 5608 5606 5602 5604 5597 5592 5587 5581 5575 5570 5563 5557 5548
5501 5510 5520 5530 5540 5544 5552 5565 5576 5582 5588 5594 5599 5602 5603 5605 5610 5611 5613 5615 5615 5616 5615 5615 5613 5611 5612 5609 5607 5606 5603 5600 5598 5595 5592 5590 5590 5581 5576 5569 5564 5556 5550 5542 5533
5490 5497 5506 5514 5522 5530 5543 5557 5564 5571 5577 5581 5585 5589 5593 5595 5597 5601 5603 5604 5605 5606 5606 5606 5603 5601 5602 5602 5599 5598 5595 5593 5590 5586 5583 5580 5577 5571 5565 5557 5551 5543 5535 5527 5517